Lid_Strength_Index
2 2 2 2 1 2 2 2 2 3 4 4 5 5 6 6 7 8 8 8 9 9 9 9 9 9 9 9 10 10 11 11 13 13 13 15 15 16 15 16 15 15 16
3 2 2 2 2 2 2 1 2 3 3 4 5 5 5 6 7 8 9 9 9 9 9 9 9 9 10 9 10 11 11 12 14 15 15 16 15 15 15 16 15 15 16
3 3 3 2 2 2 2 2 2 3 3 4 5 5 6 6 7 7 8 9 9 9 9 9 9 9 10 9 10 11 12 12 14 15 15 16 18 18 17 15 16 17 16
4 4 3 3 2 2 2 2 2 3 4 4 5 5 6 6 6 7 7 8 9 9 9 9 8 8 9 9 10 11 12 13 15 15 16 16 18 17 16 17 17 17 18
5 4 4 3 2 2 2 2 2 3 4 4 5 5 6 6 6 7 8 8 9 9 10 10 9 9 9 9 10 11 13 13 14 15 16 17 18 17 16 17 17 17 17
6 5 5 4 3 2 2 3 3 4 4 5 6 6 7 7 8 8 8 8 8 9 10 10 10 12 11 10 10 11 12 13 13 14 16 16 18 17 17 16 17 17 18
7 6 6 5 4 3 3 3 4 4 4 5 6 6 7 7 9 8 9 8 9 9 10 11 12 11 12 11 11 11 11 11 12 14 15 15 16 16 16 16 17 17 17
7 7 7 6 6 6 4 4 4 5 6 6 7 7 7 7 9 8 10 8 9 9 10 11 12 13 12 13 13 14 14 13 13 14 14 15 15 15 15 15 16 16 15
7 7 7 7 7 8 6 5 5 6 6 6 7 7 8 8 9 9 9 10 11 12 12 12 12 13 12 12 13 14 14 14 12 12 12 12 12 13 14 16 17 18 19
7 7 8 8 8 8 7 7 6 6 8 8 9 8 9 9 10 10 9 11 12 13 14 13 14 12 12 11 13 14 15 15 14 14 14 13 13 13 13 16 15 16 17
8 9 9 9 9 8 9 11 10 9 11 11 11 11 10 11 10 10 10 11 12 13 14 14 14 12 12 12 12 14 14 14 14 15 15 15 15 15 16 16 14 15 17
9 10 10 10 10 10 11 12 12 11 12 12 12 13 13 12 11 10 11 10 11 13 13 13 13 12 12 12 13 13 13 14 15 15 16 16 16 17 17 16 15 14 14
10 11 11 12 11 11 11 12 12 12 12 13 13 13 13 13 12 11 11 11 12 13 13 13 12 12 12 12 13 12 14 15 15 16 16 17 17 18 18 18 17 18 19
10 10 11 12 12 12 12 12 11 12 12 13 13 13 14 13 13 13 13 13 13 14 13 13 12 13 13 14 14 13 15 15 15 15 16 17 19 18 18 18 19 16 16
10 10 11 11 11 12 11 11 12 11 11 12 12 12 13 14 13 12 13 14 14 14 14 13 14 14 15 14 14 15 15 15 16 17 17 17 20 18 16 16 15 20 20
10 10 10 11 11 11 11 11 10 11 11 11 11 12 13 12 12 11 12 12 12 12 14 14 15 15 15 14 15 16 16 15 16 16 17 16 17 16 15 19 22 22 20
10 10 10 11 11 11 11 12 12 11 10 11 11 11 11 12 11 11 11 12 12 12 14 14 14 14 14 15 15 15 16 16 16 16 16 17 15 14 15 19 19 20 19
10 10 10 10 10 11 11 11 12 12 13 13 11 12 11 11 12 12 11 12 13 13 14 14 14 14 14 15 15 16 16 17 16 15 16 16 16 15 15 14 15 15 14
10 10 10 10 10 11 11 11 12 12 12 13 13 12 12 11 12 12 11 13 14 14 14 14 14 14 15 15 15 16 16 15 15 15 16 15 14 15 17 17 15 14 15
10 10 10 10 11 11 11 12 13 13 13 13 13 13 13 13 13 13 13 13 13 13 13 13 13 14 15 16 16 16 16 16 16 15 15 15 14 15 16 15 16 18 17
10 10 10 10 11 11 12 12 12 13 13 13 13 13 12 13 13 13 13 13 13 13 14 14 15 15 15 15 16 16 16 16 15 15 15 14 14 15 15 17 18 20 21
10 10 10 10 11 11 12 12 12 13 13 13 13 12 12 13 13 13 13 13 13 12 13 14 14 14 14 14 14 15 15 16 15 15 14 14 14 14 15 16 19 20 19
10 10 10 10 10 11 12 12 12 12 13 13 13 13 12 13 13 13 13 13 13 13 13 13 14 14 14 13 13 14 15 15 15 14 15 15 15 16 17 17 16 16 14
10 10 10 10 10 11 12 12 12 12 13 13 13 12 12 13 13 13 12 12 12 13 13 13 14 14 14 14 14 13 14 14 14 15 15 16 16 17 16 16 16 14 14
10 11 11 11 10 11 11 12 12 12 12 12 13 13 12 12 12 12 12 13 13 13 14 13 14 14 14 14 14 14 14 14 15 15 15 16 16 16 15 14 16 19 24
10 10 11 11 11 11 10 11 12 12 12 12 12 12 12 12 12 12 12 13 13 14 13 14 14 14 15 15 15 15 15 15 15 15 15 15 16 17 18 18 22 27 27